Regional Weather Roundup
Issued by NWS

Home | Current Version | Previous Version | Text Only | Print | Product List | Glossary On
Versions: 1 2 3 4 5 6 7 8 9 10 11 12 13 14 15 16 17 18 19 20 21 22 23 24 25 26 27 28 29 30 31 32 33 34 35 36 37 38 39 40 41 42 43 44 45 46 47 48 49 50
000
ASUS44 KJAN 310510
RWRMS

MISSISSIPPI HOURLY WEATHER ROUNDUP
NATIONAL WEATHER SERVICE JACKSON MS
1200 AM CDT FRI OCT 31 2014

NOTE: "FAIR: INDICATES FEW OR NO CLOUDS BELOW 12,000 FEET WITH NO
SIGNIFICANT WEATHER AND/OR OBSTRUCTIONS TO VISIBILITY.

MSZ001>002-007>008-010>013-018>021-025>028-034>036-310600-
NORTHWEST MISSISSIPPI

CITY           SKY/WX    TMP DP  RH WIND       PRES   REMARKS
CLARKSDALE     FAIR      59  50  72 SW7       30.03S
CLEVELAND      FAIR      56  52  85 SW5       30.03F
GREENWOOD      MOCLDY    51  49  92 CALM      30.04F
GREENVILLE     CLEAR     53  47  79 SW6       30.04F
GRENADA          N/A     46  46 100 MISG      30.04F FOG
OLIVE BRANCH   PTCLDY    52  50  93 S7        30.00F
OXFORD         FAIR      48  46  93 CALM      30.03F
TUNICA         PTCLDY    55  50  82 SW8       30.01F
$$

MSZ003>006-009-014>017-022>024-029>033-037>039-310600-
NORTHEAST MISSISSIPPI

CITY           SKY/WX    TMP DP  RH WIND       PRES   REMARKS
COLUMBUS AFB   CLOUDY    48  46  93 CALM      30.04S
CORINTH        MOCLDY    50  46  87 CALM      30.01F
GOLDN TRIANGLE CLOUDY    50  43  76 CALM      30.03F
STARKVILLE     CLOUDY    46  45  93 CALM      30.04F
TUPELO         CLOUDY    51  47  86 CALM      30.03S
$$

MSZ040-058-310600-
CENTRAL MISSISSIPPI

CITY           SKY/WX    TMP DP  RH WIND       PRES   REMARKS
JACKSON INTL   MOCLDY    49  45  86 CALM      30.06S
JACKSON HAWKNS MOCLDY    51  46  83 CALM      30.07S
MERIDIAN KEY   CLEAR     44  41  89 CALM      30.05S
MERIDIAN NAS   CLEAR     45  42  89 CALM      30.05R
RAYMOND        MOCLDY    48  45  87 CALM      30.07S
VICKSBURG      CLEAR     46  44  93 CALM      30.07F
$$

MSZ059>079-310600-
SOUTH MISSISSIPPI

CITY           SKY/WX    TMP DP  RH WIND       PRES   REMARKS
BROOKHAVEN     FAIR      46  45  93 CALM      30.08S
HATTIESBURG    CLEAR     47  43  86 CALM      30.06S
MCCOMB         CLEAR     49  43  80 NW3       30.07S
NATCHEZ        PTCLDY    48  45  87 CALM      30.09S
PINE BELT      CLEAR     46  41  81 CALM      30.06R
$$

MSZ080>082-310600-
COASTAL MISSISSIPPI

CITY           SKY/WX    TMP DP  RH WIND       PRES   REMARKS
BILOXI         CLEAR     57  44  62 CALM      30.03F
PASCAGOULA     CLEAR     43  42  97 CALM      30.04S
GULFPORT       CLEAR     51  45  79 CALM      30.03F
$$



USA.gov is the U.S. government's official web portal to all federal, state and local government web resources and services.